Flag Weather past 2 weeks in Chelyabinsk, Russia

Now
19 °F

Partly cloudy.


Feels Like: 4 °F
Forecast: -12 / 16 °F
Wind: 20 mph from West

Location: Chelyabinsk-Balandino

Current Time: Nov 26, 2014 at 7:59:05 AM

Latest Report: Nov 26, 2014 at 7:30 AM


Visibility: N/A

Pressure: 30.01 "Hg

Humidity: 68%

Dew point: 10 °F

Location of ChelyabinskLocation

Historic Weather in Chelyabinsk — Graph

°F

Chelyabinsk temperature yesterday

Maximum temperature yesterday: 18 °F (at 2:00 PM)
Minimum temperature yesterday: 7 °F (at 1:00 AM)
Average temperature yesterday: 14 °F

Past Weeks' High & Low Weather Summary

 TemperatureHumidityPressure
High37 °F (Nov 12, 1:00 PM)93% (Nov 11, 7:00 AM)30.54 "Hg (Nov 11, 7:00 AM)
Low-11 °F (Nov 24, 7:30 AM)33% (Nov 25, 6:30 AM)29.83 "Hg (Nov 22, 9:00 PM)
Average20 °F71%30.26 "Hg
* Reported Nov 11 6:00 AM — Nov 26 6:30 AM, Chelyabinsk, Weather by CustomWeather, © 2014

Note: Actual official high and low records may vary slightly from our data, if they occured in-between our weather recording intervals... More about our weather records

Advertising

Chelyabinsk weather history for previous 24 hours

 ConditionsComfort  
Time TempWeatherWind HumidityBarometerVisibility
6:30 AM
Nov 26
19 °FPartly cloudy.26 mph58%30.04 "HgN/A
6:00 AM19 °FPartly cloudy.24 mph68%30.07 "HgN/A
5:30 AM19 °FPartly cloudy.22 mph68%30.07 "HgN/A
5:00 AM19 °FPartly cloudy.17 mph68%30.09 "HgN/A
4:30 AM19 °FMostly cloudy.22 mph68%30.12 "HgN/A
4:00 AM19 °FMostly cloudy.22 mph63%30.12 "HgN/A
3:30 AM18 °FMostly cloudy.24 mph68%30.15 "HgN/A
3:00 AM19 °FPartly cloudy.22 mph63%30.15 "HgN/A
2:30 AM19 °FPartly cloudy.22 mph63%30.18 "HgN/A
2:00 AM19 °FPartly cloudy.20 mph68%30.15 "HgN/A
1:30 AM19 °FPartly cloudy.15 mph68%30.15 "HgN/A
1:00 AM18 °FPartly cloudy.20 mph73%30.18 "HgN/A
12:30 AM18 °FPartly cloudy.20 mph73%30.18 "HgN/A
12:00 AM18 °FMostly cloudy.20 mph73%30.18 "HgN/A
11:30 PM
Nov 25
18 °FPartly cloudy.20 mph68%30.21 "HgN/A
11:00 PM18 °FMostly cloudy.15 mph68%30.21 "HgN/A
10:30 PM18 °FMostly cloudy.15 mph68%30.21 "HgN/A
10:00 PM18 °FMostly cloudy.22 mph68%30.24 "HgN/A
9:30 PM18 °FMostly cloudy.22 mph68%30.24 "HgN/A
9:00 PM18 °FMostly cloudy.20 mph68%30.24 "HgN/A
8:30 PM18 °FMostly cloudy.15 mph62%30.24 "HgN/A
8:00 PM16 °FMostly cloudy.17 mph67%30.24 "HgN/A
7:30 PM16 °FMostly cloudy.20 mph67%30.24 "HgN/A
7:00 PM16 °FMostly cloudy.20 mph67%30.24 "HgN/A
6:30 PM18 °FMostly cloudy.24 mph62%30.24 "HgN/A
6:00 PM18 °FPartly cloudy.15 mph62%30.24 "HgN/A
5:30 PM18 °FPartly cloudy.24 mph62%30.21 "HgN/A
5:00 PM18 °FPartly cloudy.26 mph62%30.24 "HgN/A
4:30 PM18 °FBroken clouds.24 mph62%30.24 "HgN/A
4:00 PM18 °FBroken clouds.24 mph58%30.24 "HgN/A
3:00 PM18 °FBroken clouds.22 mph53%30.24 "HgN/A
2:30 PM18 °FBroken clouds.29 mph49%30.24 "HgN/A
2:00 PM18 °FBroken clouds.26 mph45%30.27 "HgN/A
1:30 PM16 °FBroken clouds.31 mph48%30.27 "HgN/A
1:00 PM16 °FBroken clouds.26 mph45%30.27 "HgN/A
12:30 PM14 °FBroken clouds.22 mph48%30.30 "HgN/A
12:00 PM14 °FBroken clouds.26 mph44%30.30 "HgN/A
11:30 AM14 °FMore clouds than sun.24 mph41%30.30 "HgN/A
11:00 AM16 °FMore clouds than sun.26 mph37%30.30 "HgN/A
10:30 AM16 °FMore clouds than sun.26 mph34%30.30 "HgN/A
10:00 AM16 °FMore clouds than sun.29 mph34%30.30 "HgN/A
9:30 AM14 °FMore clouds than sun.29 mph41%30.30 "HgN/A
8:30 AM12 °FPartly cloudy.29 mph40%30.30 "HgN/A
8:00 AM10 °FPartly cloudy.24 mph40%30.33 "HgN/A
7:30 AM12 °FPartly cloudy.24 mph34%30.33 "HgN/A
7:00 AM12 °FPartly cloudy.26 mph37%30.36 "HgN/A
Weather by CustomWeather, © 2014

See weather overviewHow to use our weather pages